星链-35340(STARLINK-35340)

导读 | 豆包AI

STARLINK-35340是美国太空探索技术公司(SpaceX)于2025年10月16日发射的星链(Starlink)系列低轨通信卫星,归属美国星链互联网星座项目。该卫星运行在近550公里高度的近地轨道,采用平板设计与氪工质霍尔推进器,具备自主避撞能力,旨在为全球提供宽带互联网接入服务,服役末期可主动离轨再入大气层销毁。

基本信息
目录编号:
66022
目录名称:
STARLINK-35340
国际标识:
2025-232T
轨道中心:
EARTH
卫星名称:
星链-35340
卫星全名:
星链-35340(STARLINK-35340)
卫星状态:
在轨 (已飞行149 天)
发射日期:
2025-10-16 UTC
国别 :
美国 (US)
星等 :
--
轨道信息
数据来源 国际轨道数据
星历时间: 2026-03-13T18:52:43+0800
22小时前
查看轨道信息
半长轴: 6853.402km
偏心率: 0.0001396
轨道倾角: 53.159°
近地点辐角 66.743°
升交点赤经 86.297°
平近点角 293.372°
近地点: 474.308km
远地点: 476.222km
周期: 94.106分钟
每日圈数: 15.301836
详细信息
固有亮度:
5
最大亮度:
2.5
卫星平台:
Starlink V1.0
覆盖范围:
全球
运营商:
太空探索技术公司
运营商所在国:
美国
制造商(研发单位):
太空探索技术公司
制造商所在国:
美国
使用方式:
暂无
卫星简介
Starlink 计划是 SpaceX 推出的全球卫星互联网项目,通过发射低轨道卫星,为全球尤其是偏远地区提供高速、低延迟的互联网服务。自 2019 年起,Starlink 已部署数千颗卫星,旨在缩小全球数字鸿沟,推动互联网普及。该项目还为军事、航空等行业提供通信支持,带来广泛经济效益。
2D轨道图
3D轨道图
轨道高度分析图
轨道倾角分析图
轨道综合分析图
查看轨道综合分析图